ISS
NORAD ID: 39115
Int'l Code: 2013-010A
Perigee: N/A
Apogee: N/A
Inclination: N/A
Period: N/A
Semi major axis: N/A
Launch date: March 1, 2013
Source: United States (US)
Decay date: 2013-03-26
Comments: SPACEX CRS-2, also known as SPX-2, is the fourth flight for SpaceX's uncrewed Dragon cargo spacecraft, the fifth and final flight for the company's two-stage Falcon 9 v1.0 launch vehicle, and the second SpaceX operational mission contracted to NASA under a Commercial Resupply Services contract.
Two Line Element Set (TLE):
1 39115U 13010A 13060.70545818 -.00003634 11490-4 00000+0 0 22
2 39115 051.6676 282.2864 0086029 046.2514 034.1377 16.04265465 05
Source: AFSPC
NASA's NSSDC Master Catalog entry for DRAGON CRS-2